Location: Agendoh
(31.0664°N, 8.9343°W)
Time: 08:26:05
(UTC+00:00)

Okean 3 Rocket - Pass Details

Date: 06 December 2021
Orbit: 614 x 646 km, 82.5° (Epoch: 24 January)

Event Time Altitude Azimuth Distance (km) Brightness Sun altitude
Rises 05:44:11 0° 193° (SSW) 2,930 7.0 -20.1°
Reaches altitude 10° 05:46:27 10° 197° (SSW) 2,028 6.2 -19.6°
Maximum altitude 05:50:53 59° 277° (W) 744 3.6 -18.7°
Drops below altitude 10° 05:55:23 10° 357° (N) 2,047 6.0 -17.8°
Sets 05:57:40 0° 2° (N) 2,960 6.9 -17.3°
